TimeEST,TemperatureF,Dew PointF,Humidity,Sea Level PressureIn,VisibilityMPH,Wind Direction,Wind SpeedMPH,Gust SpeedMPH,PrecipitationIn,Events,Conditions,WindDirDegrees,DateUTC
12:56 AM,30.0,21.0,69,29.94,-9999.0,NNW,10.4,-,N/A,,Unknown,340,2013-01-13 05:56:00
1:56 AM,28.9,19.9,69,29.91,-9999.0,North,11.5,-,N/A,,Unknown,350,2013-01-13 06:56:00
2:56 AM,28.0,19.0,69,29.91,-9999.0,North,12.7,-,N/A,,Unknown,350,2013-01-13 07:56:00
3:56 AM,27.0,18.0,69,29.93,-9999.0,NW,12.7,20.7,N/A,,Unknown,310,2013-01-13 08:56:00
4:56 AM,27.0,18.0,69,29.89,-9999.0,NNW,12.7,-,N/A,,Unknown,330,2013-01-13 09:56:00
5:56 AM,27.0,18.0,69,29.91,-9999.0,NW,9.2,-,N/A,,Unknown,320,2013-01-13 10:56:00
6:56 AM,27.0,19.0,72,29.91,-9999.0,North,12.7,-,N/A,,Unknown,360,2013-01-13 11:56:00
7:56 AM,27.0,18.0,69,29.93,-9999.0,NNW,10.4,-,N/A,,Unknown,340,2013-01-13 12:56:00
8:56 AM,27.0,19.0,72,29.94,-9999.0,NW,9.2,-,N/A,,Unknown,320,2013-01-13 13:56:00
9:56 AM,27.0,17.1,66,29.95,-9999.0,NW,5.8,-,N/A,,Unknown,310,2013-01-13 14:56:00
10:56 AM,26.1,19.0,75,29.97,-9999.0,NW,9.2,-,N/A,,Unknown,310,2013-01-13 15:56:00
11:56 AM,26.1,19.0,75,29.95,-9999.0,WNW,6.9,-,N/A,,Unknown,290,2013-01-13 16:56:00
12:56 PM,27.0,19.9,75,29.93,-9999.0,NNW,12.7,-,N/A,,Unknown,340,2013-01-13 17:56:00
1:56 PM,26.1,19.0,75,29.90,-9999.0,NNW,10.4,-,N/A,,Unknown,330,2013-01-13 18:56:00
2:56 PM,25.0,17.1,72,29.94,-9999.0,NNW,9.2,-,N/A,,Unknown,330,2013-01-13 19:56:00
3:56 PM,26.1,18.0,71,29.94,-9999.0,North,9.2,-,N/A,,Unknown,350,2013-01-13 20:56:00
4:56 PM,24.1,19.0,81,29.96,-9999.0,NW,8.1,-,0.01,,Unknown,310,2013-01-13 21:56:00
5:56 PM,24.1,18.0,77,29.94,-9999.0,NW,9.2,-,0.01,,Unknown,310,2013-01-13 22:56:00
6:56 PM,23.0,18.0,81,29.92,-9999.0,NW,10.4,-,0.01,,Unknown,310,2013-01-13 23:56:00
7:56 PM,23.0,15.1,72,29.94,-9999.0,WNW,4.6,-,N/A,,Unknown,290,2013-01-14 00:56:00
8:56 PM,23.0,18.0,81,29.95,-9999.0,WNW,8.1,-,0.01,,Unknown,300,2013-01-14 01:56:00
9:56 PM,21.0,15.1,78,29.97,-9999.0,West,10.4,16.1,0.01,,Unknown,280,2013-01-14 02:56:00
10:56 PM,19.9,10.9,68,29.99,-9999.0,West,9.2,-,0.01,,Unknown,270,2013-01-14 03:56:00
11:56 PM,19.0,10.0,68,30.01,-9999.0,Variable,6.9,-,N/A,,Unknown,0,2013-01-14 04:56:00